Location: Anjeux
(47.8815°N, 6.2076°E)
Time: 10:13:03
(UTC+00:00)

AO-27 - Pass Details

Date: 09 December 2021
Orbit: 784 x 798 km, 98.9° (Epoch: 24 January)

Event Time Altitude Azimuth Distance (km) Brightness Sun altitude
Rises 17:05:23 0° 138° (SE) 3,291 10.6 -13.2°
Reaches altitude 10° 17:07:51 10° 129° (SE) 2,367 9.8 -13.6°
Maximum altitude 17:12:35 36° 65° (ENE) 1,246 8.2 -14.3°
Drops below altitude 10° 17:17:21 10° 360° (N) 2,383 10.0 -15.1°
Sets 17:19:50 0° 352° (N) 3,317 10.8 -15.5°
